Wind_Speed
43 42 43 44 45 46 46 47 47 47 47 47 47 46 45 42 40 40 43 46 47 47 47 45 43 41 40 40 40 40 39 39 39 39 40 41 41 41 39 39 37 41 44
44 44 45 46 47 49 50 50 50 50 49 49 48 47 46 44 42 40 38 38 38 38 37 38 38 37 36 34 35 36 37 37 38 39 40 41 43 44 44 40 40 43 45
46 47 47 48 49 51 52 54 54 54 52 51 49 48 47 46 44 41 39 37 36 36 36 36 37 38 38 37 38 38 39 40 40 41 43 44 45 47 47 46 47 46 45
50 50 51 52 52 53 53 55 56 55 53 51 49 46 44 44 44 44 44 42 41 41 40 40 40 41 42 43 44 44 44 45 46 47 48 48 49 50 51 51 47 49 47
54 54 54 55 56 55 55 54 54 53 51 48 45 43 43 43 44 46 47 48 46 46 47 49 50 51 52 50 49 49 49 50 51 51 51 52 52 53 53 52 50 49 52
59 58 58 58 58 57 57 56 52 50 48 47 46 45 45 44 45 48 52 53 54 55 55 55 55 55 55 56 55 55 56 58 58 58 57 58 58 57 57 57 53 51 53
64 63 62 62 62 61 60 57 52 49 49 48 49 49 49 50 52 53 54 56 58 58 58 59 61 62 63 63 64 64 65 65 66 66 66 66 64 63 62 63 62 60 58
67 67 65 64 65 63 60 57 54 51 50 51 52 54 55 56 58 60 62 64 65 67 68 68 69 70 71 72 73 74 74 74 74 73 72 72 71 72 71 70 69 69 66
60 60 62 61 60 60 59 58 57 57 57 58 59 61 63 64 65 67 69 70 72 73 75 77 78 78 79 79 80 81 80 77 76 76 77 78 78 78 79 80 79 78 77
64 64 64 64 63 64 64 65 64 66 68 70 71 71 72 72 74 75 76 78 79 81 82 83 85 85 84 84 84 84 85 86 85 87 88 88 87 88 87 86 87 86 85
68 70 70 71 71 72 72 73 74 75 76 77 77 78 78 78 80 82 84 86 86 87 88 90 91 91 92 92 91 92 93 96 97 97 97 95 94 94 93 94 94 94 93
73 72 73 74 75 76 77 78 79 80 82 84 84 84 85 86 87 88 90 92 94 95 97 98 98 99 99 100 102 102 102 103 103 103 100 100 101 99 99 99 98 97 97
81 81 81 82 81 82 83 85 86 87 87 88 89 90 91 92 94 95 96 99 101 103 105 106 108 109 108 108 108 107 108 106 104 104 104 104 103 103 103 102 103 103 105
88 89 89 89 88 90 91 93 93 93 92 93 94 95 96 98 100 100 102 103 106 109 109 110 111 112 112 112 111 111 110 109 108 107 109 109 110 110 110 109 107 108 108
92 92 93 93 94 97 98 97 98 99 99 100 101 101 102 103 105 107 108 107 109 108 110 111 112 112 113 114 111 111 112 109 112 113 112 115 112 113 112 112 114 114 112
97 97 98 101 103 103 104 105 107 107 108 108 109 110 111 112 112 112 112 111 111 112 113 114 116 114 114 117 113 110 110 112 111 112 110 111 110 110 109 107 107 109 109
102 103 104 107 109 110 111 112 113 115 115 116 117 116 116 117 117 117 117 116 117 116 116 115 112 111 110 108 106 106 107 109 111 111 111 110 110 110 108 107 104 103 103
111 112 113 115 117 118 120 119 120 118 117 117 118 117 117 118 117 116 114 116 115 113 110 110 109 109 108 107 107 107 107 107 108 108 106 106 105 103 100 97 95 92 91
117 118 118 119 121 122 122 121 122 123 123 123 121 121 119 116 114 110 107 106 106 107 110 110 109 106 104 102 101 100 98 100 100 97 96 94 93 91 91 89 88 87 87
118 118 120 121 123 123 123 123 124 124 123 119 114 109 107 106 107 108 109 108 107 105 102 101 98 96 95 94 93 91 89 87 87 86 84 83 81 80 80 79 80 80 80
118 123 125 124 122 122 121 120 117 114 112 112 112 112 111 108 106 104 102 98 95 93 91 90 89 87 84 84 83 80 77 76 76 77 78 75 71 72 73 73 72 73 73
110 112 113 114 113 113 114 114 113 113 111 109 106 102 98 95 91 88 86 83 83 82 81 80 80 79 77 73 71 69 66 66 69 72 74 72 69 68 68 67 67 67 66
113 113 113 112 111 110 108 106 103 99 95 91 86 84 84 83 80 78 78 77 75 75 74 70 68 70 69 68 66 64 64 64 65 67 69 68 66 63 61 60 61 60 61
103 102 101 99 95 94 90 89 85 82 80 78 76 75 72 71 72 71 70 68 64 61 59 60 61 63 66 65 64 61 59 57 61 64 67 63 60 58 57 55 54 55 56
91 89 88 87 84 84 82 82 78 76 73 71 69 68 68 67 64 62 59 59 60 60 60 59 60 63 65 65 63 59 55 54 55 60 61 59 55 53 51 50 52 49 51
82 82 82 82 80 77 74 73 72 71 70 68 65 63 62 61 59 59 60 60 63 62 61 60 58 61 61 61 59 55 53 51 52 56 54 52 49 48 47 46 46 47 48
Wind_Direction
278 278 279 280 280 279 279 279 280 281 282 282 282 281 281 278 276 273 267 265 266 268 268 268 263 262 260 261 260 260 259 259 258 257 255 253 254 253 255 255 265 264 260
276 279 281 282 283 283 283 282 281 281 281 281 281 280 279 277 275 274 272 266 263 260 260 258 257 257 257 258 260 260 260 260 261 261 258 255 255 255 255 257 258 257 258
278 280 281 281 282 283 284 285 285 284 284 282 280 277 275 272 269 268 266 263 260 256 253 252 254 256 257 259 260 261 261 262 263 263 264 264 262 261 260 259 260 257 252
278 280 282 283 283 283 284 285 285 285 283 280 278 275 271 269 266 266 265 262 260 259 258 258 261 262 264 266 267 268 267 268 269 268 267 266 266 265 263 262 261 257 251
281 282 284 284 284 285 287 286 285 283 281 278 275 272 271 269 266 264 263 262 262 262 263 264 265 267 268 268 268 270 271 272 272 272 271 269 267 265 265 262 259 254 249
283 284 285 286 287 288 288 289 287 282 279 277 274 272 271 269 266 263 261 261 262 263 264 264 264 265 266 268 268 271 274 274 273 272 271 269 266 264 261 259 254 250 246
284 285 285 287 288 288 288 288 286 281 279 278 276 274 271 268 266 264 263 262 262 262 263 264 265 267 267 269 269 271 272 273 272 272 272 271 269 268 264 261 257 250 239
284 285 285 284 284 285 286 286 283 280 278 278 277 276 274 272 270 268 266 265 264 264 265 265 267 268 268 269 269 270 270 270 271 270 269 268 267 267 265 263 259 256 251
286 285 283 283 283 284 284 283 281 279 279 278 277 276 275 274 272 270 269 268 268 268 268 268 269 269 268 269 269 270 270 269 269 268 267 267 266 265 263 262 261 258 257
286 284 283 282 282 282 282 281 279 278 278 278 278 277 276 274 272 271 271 270 270 269 269 269 269 269 271 272 270 270 270 270 270 271 271 269 267 264 261 259 259 258 258
282 281 281 281 281 280 279 279 279 279 279 280 280 280 279 278 277 276 274 273 273 273 273 273 273 273 274 274 274 273 273 274 274 273 272 270 269 266 263 259 257 257 255
279 279 279 278 278 277 279 280 280 280 280 280 280 279 279 278 277 276 276 276 275 274 274 274 275 275 275 275 274 274 275 274 274 274 272 271 269 267 262 261 257 255 254
282 281 281 281 280 279 279 278 278 278 278 278 278 278 278 278 278 277 276 276 276 276 276 276 277 276 276 276 275 275 275 275 274 272 272 270 268 266 265 261 258 255 254
279 280 280 279 277 277 277 277 278 278 278 278 279 279 279 278 277 277 276 277 277 277 277 277 277 276 276 275 275 275 275 275 275 275 274 273 271 268 265 262 259 256 254
278 278 277 276 276 276 277 277 278 278 278 278 277 278 278 279 279 279 278 277 277 277 277 277 277 277 277 278 277 277 278 278 276 275 273 273 271 268 265 263 261 258 257
276 276 276 276 275 276 276 276 276 276 277 278 279 279 279 280 282 282 281 281 281 281 281 281 281 280 279 281 280 279 277 277 276 274 272 270 269 269 268 267 264 262 260
275 275 276 276 277 277 277 277 278 279 280 281 281 281 281 280 281 282 282 282 282 282 282 283 282 281 280 279 278 277 277 275 274 273 273 272 271 270 270 269 267 266 263
276 275 275 276 277 277 278 279 280 282 282 283 283 283 284 283 283 284 283 281 281 281 281 280 280 279 278 277 277 275 275 273 273 273 273 272 272 272 271 271 268 266 263
275 275 275 276 277 278 279 279 279 280 280 282 283 282 282 282 281 281 281 281 281 280 279 279 278 277 277 275 275 275 275 274 274 274 273 272 272 271 270 269 267 265 262
276 276 277 277 278 278 279 280 281 282 281 281 280 280 279 280 280 280 279 279 279 279 279 278 278 277 276 275 275 275 275 274 274 274 272 271 270 271 270 268 267 265 262
274 274 275 277 277 278 277 277 278 278 278 278 279 279 280 280 280 279 280 279 278 278 277 277 276 275 274 274 275 276 276 275 275 274 273 272 271 270 269 268 266 265 264
275 275 276 277 278 278 278 278 279 279 279 279 279 279 279 279 277 277 277 277 276 276 275 274 274 274 274 273 274 275 275 274 273 273 273 274 273 271 270 269 267 264 262
278 278 278 279 279 280 281 281 282 281 281 280 279 278 277 276 276 275 275 275 275 275 274 275 274 274 273 273 272 273 273 273 272 273 274 275 275 274 272 268 265 262 258
279 279 279 279 279 280 281 281 281 281 280 280 279 277 276 275 274 274 274 274 273 273 274 274 274 275 275 275 276 275 274 271 273 274 275 275 275 272 269 265 262 259 257
280 280 280 281 281 282 281 281 281 281 281 281 280 278 276 274 273 272 271 271 272 272 271 271 272 273 275 276 276 275 273 273 273 273 274 274 272 270 266 263 262 259 255
283 283 282 282 282 282 282 281 282 282 282 281 279 276 275 274 273 273 272 273 275 273 272 273 273 273 273 275 276 274 274 274 274 272 271 270 272 270 267 264 260 256 255
Height
10647 10646 10644 10642 10640 10639 10638 10637 10635 10634 10633 10631 10630 10629 10629 10628 10627 10627 10627 10628 10629 10630 10630 10631 10632 10634 10635 10635 10637 10638 10639 10640 10642 10644 10645 10648 10649 10652 10654 10656 10654 10654 10657
10637 10635 10633 10631 10629 10627 10625 10624 10623 10621 10620 10618 10617 10616 10616 10615 10616 10616 10615 10615 10616 10616 10617 10619 10621 10622 10623 10624 10626 10628 10629 10631 10632 10633 10635 10637 10639 10641 10643 10645 10646 10647 10646
10625 10623 10622 10619 10617 10615 10612 10610 10608 10606 10605 10604 10603 10602 10602 10602 10602 10603 10603 10604 10604 10605 10606 10608 10609 10611 10612 10614 10615 10617 10618 10619 10621 10622 10624 10625 10627 10629 10632 10634 10635 10636 10637
10612 10611 10609 10607 10604 10601 10599 10596 10594 10592 10590 10589 10588 10588 10587 10588 10589 10591 10592 10593 10594 10596 10597 10598 10599 10600 10601 10602 10604 10605 10606 10608 10609 10610 10611 10613 10614 10615 10617 10620 10623 10624 10626
10599 10598 10596 10593 10590 10588 10585 10583 10580 10577 10576 10574 10573 10573 10574 10575 10577 10578 10580 10581 10582 10583 10584 10584 10585 10585 10585 10586 10588 10590 10591 10592 10593 10595 10597 10598 10600 10600 10601 10604 10607 10610 10611
10582 10582 10579 10576 10574 10572 10569 10567 10565 10563 10561 10561 10561 10561 10561 10561 10562 10563 10564 10565 10566 10566 10566 10567 10568 10568 10569 10570 10572 10573 10573 10574 10575 10577 10578 10580 10582 10584 10584 10585 10589 10593 10597
10565 10565 10563 10560 10557 10555 10553 10551 10549 10548 10547 10547 10547 10547 10546 10546 10546 10547 10547 10547 10548 10548 10549 10549 10550 10550 10550 10551 10552 10554 10555 10556 10556 10557 10558 10560 10562 10564 10567 10568 10569 10573 10578
10548 10547 10545 10544 10540 10538 10537 10535 10533 10533 10532 10531 10531 10530 10529 10529 10528 10528 10529 10529 10530 10530 10530 10530 10531 10531 10531 10531 10531 10532 10533 10533 10535 10536 10536 10537 10539 10541 10544 10548 10551 10552 10555
10530 10529 10526 10525 10523 10521 10520 10519 10517 10516 10515 10514 10513 10513 10512 10511 10510 10509 10509 10508 10508 10508 10508 10508 10508 10508 10508 10508 10508 10508 10510 10509 10510 10512 10513 10514 10516 10517 10519 10522 10525 10530 10533
10515 10512 10509 10507 10506 10504 10502 10501 10500 10498 10496 10494 10493 10492 10491 10490 10488 10487 10486 10486 10485 10484 10483 10482 10481 10482 10482 10483 10482 10482 10483 10482 10483 10483 10484 10485 10488 10490 10492 10494 10498 10502 10507
10496 10493 10490 10488 10486 10485 10482 10480 10479 10477 10475 10472 10470 10469 10467 10466 10464 10463 10461 10459 10458 10457 10456 10455 10454 10454 10455 10455 10454 10453 10453 10452 10451 10451 10451 10450 10453 10455 10459 10463 10467 10472 10477
10477 10474 10471 10468 10465 10463 10461 10459 10456 10454 10451 10448 10447 10445 10443 10441 10438 10436 10434 10432 10430 10428 10426 10424 10423 10422 10422 10422 10421 10420 10420 10419 10416 10415 10417 10415 10416 10418 10421 10426 10432 10438 10442
10453 10450 10447 10445 10442 10438 10435 10433 10430 10428 10426 10423 10422 10419 10417 10414 10411 10409 10406 10403 10400 10397 10394 10392 10389 10388 10387 10386 10385 10384 10382 10383 10382 10379 10378 10377 10378 10379 10381 10387 10393 10397 10403
10429 10425 10423 10420 10416 10413 10410 10406 10403 10401 10399 10396 10393 10391 10388 10385 10382 10379 10376 10374 10370 10366 10363 10359 10356 10353 10351 10349 10347 10347 10346 10344 10342 10340 10337 10336 10335 10338 10341 10344 10350 10355 10363
10401 10399 10396 10392 10388 10383 10380 10378 10374 10370 10368 10365 10363 10360 10356 10353 10349 10345 10342 10340 10337 10333 10329 10325 10321 10318 10316 10312 10309 10307 10306 10304 10301 10297 10295 10295 10295 10295 10299 10303 10307 10313 10321
10373 10371 10367 10362 10357 10353 10350 10346 10342 10338 10335 10332 10329 10326 10323 10319 10316 10311 10307 10304 10301 10297 10292 10287 10284 10280 10277 10276 10274 10269 10265 10262 10259 10255 10253 10253 10254 10255 10258 10262 10266 10271 10278
10342 10341 10335 10328 10324 10320 10316 10312 10307 10303 10300 10298 10295 10291 10288 10285 10280 10276 10272 10268 10264 10260 10256 10250 10246 10241 10238 10238 10234 10230 10229 10225 10220 10217 10215 10214 10213 10216 10219 10222 10227 10229 10233
10308 10306 10301 10296 10290 10285 10281 10277 10273 10269 10266 10262 10258 10255 10251 10246 10242 10238 10234 10231 10228 10224 10220 10215 10212 10207 10204 10202 10197 10195 10192 10189 10183 10181 10178 10177 10176 10176 10181 10183 10186 10190 10195
10274 10270 10267 10262 10256 10251 10246 10242 10238 10235 10231 10228 10223 10220 10216 10211 10207 10203 10199 10197 10193 10189 10185 10180 10176 10172 10168 10166 10160 10159 10156 10151 10147 10147 10143 10142 10141 10144 10148 10150 10150 10153 10155
10241 10237 10230 10225 10220 10215 10211 10207 10203 10199 10194 10191 10188 10185 10181 10177 10173 10169 10166 10163 10160 10154 10149 10144 10140 10137 10132 10131 10130 10129 10124 10119 10117 10113 10111 10112 10115 10115 10117 10118 10119 10120 10122
10208 10200 10194 10189 10186 10183 10177 10172 10169 10164 10158 10156 10154 10150 10146 10142 10138 10133 10130 10127 10124 10120 10117 10113 10108 10105 10105 10101 10100 10099 10097 10094 10090 10084 10081 10085 10091 10092 10091 10091 10093 10094 10096
10169 10163 10156 10151 10151 10147 10139 10136 10131 10126 10123 10120 10118 10115 10111 10108 10105 10101 10099 10096 10094 10091 10089 10084 10080 10079 10077 10076 10075 10073 10073 10072 10068 10061 10057 10059 10064 10066 10066 10066 10067 10068 10071
10129 10125 10121 10117 10115 10108 10103 10098 10093 10089 10086 10084 10084 10082 10080 10078 10076 10072 10070 10069 10068 10065 10062 10061 10056 10052 10051 10052 10054 10053 10051 10049 10045 10041 10038 10037 10038 10040 10041 10042 10043 10044 10045
10091 10088 10086 10084 10084 10078 10074 10066 10061 10060 10057 10055 10055 10052 10050 10050 10049 10047 10046 10043 10043 10042 10040 10039 10035 10030 10027 10030 10030 10031 10031 10030 10026 10021 10015 10017 10017 10017 10018 10020 10022 10024 10024
10059 10056 10054 10052 10050 10049 10045 10038 10036 10034 10031 10029 10029 10027 10024 10023 10024 10023 10023 10021 10020 10019 10019 10019 10016 10011 10006 10007 10008 10009 10010 10010 10008 10002 9998 9997 9998 9997 9998 9999 10000 10004 10005
10029 10027 10025 10023 10021 10019 10017 10012 10010 10009 10006 10005 10004 10003 10002 10002 10002 10002 10001 10001 9998 9998 9998 9997 9996 9991 9989 9986 9986 9990 9990 9990 9988 9982 9980 9980 9979 9979 9979 9980 9982 9985 9986